Regional Weather Roundup
Issued by NWS Sioux Falls, SD

Home | Current Version | Previous Version | Text Only | Print | Product List | Glossary On
Versions: 1 2 3 4 5 6 7 8 9 10 11 12 13 14 15 16 17 18 19 20 21 22 23 24 25 26 27 28 29 30 31 32 33 34 35 36 37 38 39 40 41 42 43 44 45 46 47 48 49 50
000
ASUS43 KFSD 191802
RWRFSD

WEATHER ROUNDUP FOR SE SOUTH DAKOTA/SW MINNESOTA/NW IOWA
NATIONAL WEATHER SERVICE SIOUX FALLS SD
100 PM CDT SAT AUG 19 2017

NOTE: "FAIR" INDICATES FEW OR NO CLOUDS BELOW 12,000 FEET WITH NO
SIGNIFICANT WEATHER AND OR OBSTRUCTIONS TO VISIBILITY.


SDZ038>040-050-052>070-191900-
SOUTHEAST SOUTH DAKOTA

CITY           SKY/WX    TMP DP  RH WIND       PRES   REMARKS
BROOKINGS      SUNNY     74  63  68 S13       29.94F
CHAMBERLAIN    SUNNY     84  63  49 SE18      29.85F
6HR MIN TEMP:  58; 6HR MAX TEMP:  84;

HURON          SUNNY     78  60  53 SE15G21   29.87F
6HR MIN TEMP:  56; 6HR MAX TEMP:  79;

MADISON        FAIR      73  66  78 SE10      29.94F
MITCHELL       SUNNY     79  62  56 S15G22    29.90F
6HR MIN TEMP:  54; 6HR MAX TEMP:  79;

SIOUX FALLS    SUNNY     77  64  64 SE8       29.94F
6HR MIN TEMP:  54; 6HR MAX TEMP:  77;

WINNER         FAIR      86  62  44 S15       29.85F
YANKTON        SUNNY     77  65  66 E9        29.93
$$

MNZ071-072-080-081-089-090-097-098-191900-
SOUTHWEST MINNESOTA

CITY           SKY/WX    TMP DP  RH WIND       PRES   REMARKS
FAIRMONT       SUNNY     74  63  68 S6        29.96F
JACKSON        SUNNY     73  61  64 CALM      29.97F
MARSHALL       SUNNY     77  62  59 SE10      29.93F
6HR MIN TEMP:  55; 6HR MAX TEMP:  77; 6HR PCP:  0.09;

MONTEVIDEO     SUNNY     79  64  61 SW9       29.92F
PIPESTONE      MOSUNNY   75  61  60 S9        29.95F
REDWOOD FALLS  SUNNY     75  62  64 VRB5      29.94F
TRACY          SUNNY     76  63  63 SE8       29.95F
WINDOM         SUNNY     75  61  60 S5        29.96F
WORTHINGTON    SUNNY     74  62  66 S6        29.97F
$$

IAZ001>003-012>014-020>022-031-032-NEZ013-014-SDZ071-191900-
NORTHWEST IOWA

CITY           SKY/WX    TMP DP  RH WIND       PRES   REMARKS
CHEROKEE       SUNNY     76  65  68 S3        29.96F
DENISON        SUNNY     75  64  69 CALM      29.98F
ESTHERVILLE    MOSUNNY   73  65  75 S5        29.96F
LE MARS        SUNNY     77  63  61 CALM      29.95F
ORANGE CITY    SUNNY     75  66  73 SE3       29.96F
SHELDON        SUNNY     75  64  69 VRB6      29.95F
SIOUX CITY     SUNNY     78  66  66 VRB6      29.95F
6HR MIN TEMP:  54; 6HR MAX TEMP:  78;

SPENCER        SUNNY     75  63  66 VRB3      29.96F
6HR MIN TEMP:  53; 6HR MAX TEMP:  76; 6HR PCP: TRACE;

STORM LAKE       N/A     73  66  78 SE7       29.97F
$$

ABBREVIATIONS USED IN REMARKS
   TC - TEMPERATURE IN CELSIUS
  WCI - WIND CHILL INDEX
   HX - HEAT INDEX
  VSB - VISIBILITY





USA.gov is the U.S. government's official web portal to all federal, state and local government web resources and services.